Location: Utrecht
(52.0917°N, 5.1178°E)
Time: 08:50:22
(UTC+02:00)

Amateur Radio Satellites - All Passes

Search period start: 25 May 2017 08:20
Search period end: 26 May 2017 08:20
Location: Utrecht, 52.0917°N, 5.1178°E

Satellite Date Start Highest point End Downlink Frequencies (MHz)
Time Altitude Azimuth
CUTE 1.7 + AOD 2 25 May 08:20:50 08:24:17 23° 92° (E) 08:27:43 437.475
XW-2C 25 May 08:27:29 08:31:17 55° 288° (WNW) 08:35:03 145.795 - 145.815
XW-2F 25 May 08:27:59 08:31:47 57° 289° (WNW) 08:35:33 145.980 - 146.000
AO-85 25 May 08:28:31 08:31:58 27° 329° (NNW) 08:35:22 145.980
NUDT-PHONESAT 25 May 08:33:13 08:36:58 59° 287° (WNW) 08:40:41 437.300
CUBEBUG 2 25 May 08:38:06 08:41:27 20° 90° (E) 08:44:52 437.445
KAITUO 1B 25 May 08:38:59 08:42:43 51° 289° (WNW) 08:46:25 145.475/437.950
BEESAT 2 25 May 08:42:31 08:46:32 78° 314° (NW) 08:50:37 435.950
AAUSAT CUBESAT 2 25 May 08:44:59 08:47:12 14° 87° (E) 08:49:23 437.432
DOVE 4 25 May 08:50:11 08:53:35 25° 297° (WNW) 08:57:00 437.250
UWE-3 25 May 08:52:48 08:55:55 18° 89° (E) 08:59:04 435.000/436.395/437.385
PRISM 25 May 09:01:11 09:03:40 16° 57° (ENE) 09:06:08 437.425
LilacSat-2 25 May 09:03:49 09:07:02 25° 296° (WNW) 09:10:13 437.200
BEESAT 3 25 May 09:08:06 09:11:38 29° 328° (NNW) 09:15:13 437.485
STRAND 1 25 May 09:08:34 09:12:56 28° 267° (W) 09:17:19 437.568
CUTE-I 25 May 09:10:32 09:15:34 44° 295° (WNW) 09:20:35 437.470
SEEDS 25 May 09:13:30 09:17:38 48° 99° (E) 09:21:43 437.485
M-CUBED/EXP-1 PRIME 25 May 09:15:16 09:19:17 43° 254° (WSW) 09:23:03 437.505
TIGRISAT 25 May 09:22:18 09:25:14 18° 57° (ENE) 09:28:12 435.000
RS-15 25 May 09:24:13 09:36:11 49° 16° (NNE) 09:47:48 29.354- 29.394
Oscar 11 25 May 09:33:32 09:36:37 18° 90° (E) 09:39:40 .
XW-2A 25 May 09:33:57 09:37:24 71° 286° (WNW) 09:40:50 145.665 - 145.685
SO-50 25 May 09:36:32 09:39:24 17° 247° (WSW) 09:42:16 436.795
XW-2D 25 May 09:41:45 09:43:25 13° 304° (WNW) 09:45:05 145.860 - 145.880
FO-29 25 May 09:45:21 09:50:00 35° 61° (ENE) 09:54:52 435.910
XW-2B 25 May 09:50:07 09:51:14 11° 305° (NW) 09:52:21 145.730 - 145.750
UNISAT 6 25 May 09:52:16 09:56:07 33° 65° (ENE) 10:00:03 437.425
CUTE 1.7 + AOD 2 25 May 09:56:14 10:00:21 46° 291° (WNW) 10:04:26 437.475
AO-73 25 May 09:57:03 10:01:15 37° 96° (E) 10:05:29 145.935
HO-68 25 May 09:58:09 10:05:23 77° 292° (WNW) 10:12:34 435.675
AO-7 25 May 10:09:38 10:12:19 12° 346° (NNW) 10:15:00 .
ZACube-1 25 May 10:09:46 10:14:12 52° 100° (E) 10:18:40 437.345
AO-85 25 May 10:11:31 10:13:37 14° 354° (N) 10:15:41 145.980
CUBEBUG 2 25 May 10:13:59 10:18:26 61° 289° (WNW) 10:23:00 437.445
AAUSAT CUBESAT 2 25 May 10:19:01 10:23:12 76° 286° (WNW) 10:27:19 437.432
BEESAT 2 25 May 10:21:45 10:24:55 21° 335° (NNW) 10:28:06 435.950
UWE-3 25 May 10:28:18 10:32:48 69° 288° (WNW) 10:37:25 435.000/436.395/437.385
PRISM 25 May 10:34:17 10:38:27 79° 257° (WSW) 10:42:35 437.425
EO-79 25 May 10:46:39 10:48:20 12° 53° (NE) 10:50:02 145.935-145.965
BEESAT 3 25 May 10:48:09 10:50:25 14° 351° (N) 10:52:41 437.485
YUBILEINY 25 May 10:48:29 10:53:56 17° 43° (NE) 10:59:21 435.215
SEEDS 25 May 10:49:42 10:53:04 23° 298° (WNW) 10:56:24 437.485
CUTE-I 25 May 10:53:34 10:54:22 10° 317° (NW) 10:55:09 437.470
NO-84 25 May 10:54:35 10:58:37 38° 143° (SE) 11:02:29 435.350 FM
DELFI C3 25 May 10:55:06 10:58:42 32° 96° (E) 11:02:14 145.870
TIGRISAT 25 May 10:57:12 11:01:27 70° 258° (WSW) 11:05:49 435.000
Oscar 11 25 May 11:08:49 11:13:09 61° 289° (WNW) 11:17:27 .
AIST 2D 25 May 11:24:50 11:28:03 35° 68° (ENE) 11:31:20 435.315
EO-88 25 May 11:25:49 11:29:25 49° 100° (E) 11:33:00 145.990 - 145.960
UNISAT 6 25 May 11:28:57 11:32:50 33° 264° (W) 11:36:50 437.425
FO-29 25 May 11:30:14 11:35:07 41° 263° (W) 11:40:12 435.910
NANOSAT C BR1 25 May 11:30:56 11:34:24 26° 62° (ENE) 11:37:53 145.865
AO-73 25 May 11:33:24 11:37:26 33° 295° (WNW) 11:41:31 145.935
POLYITAN 1 25 May 11:33:30 11:37:08 29° 64° (ENE) 11:40:47 437.675
RS-15 25 May 11:38:01 11:50:27 85° 46° (NE) 12:02:19 29.354- 29.394
QB50P2 25 May 11:41:47 11:45:38 36° 66° (ENE) 11:49:31 145.880/145.840
DUCHIFAT 1 25 May 11:42:28 11:46:04 29° 64° (ENE) 11:49:43 145.980
ZACube-1 25 May 11:46:34 11:50:13 25° 298° (WNW) 11:53:54 437.345
HO-68 25 May 11:46:45 11:52:06 23° 314° (NW) 11:57:27 435.675
AO-85 25 May 11:52:48 11:55:29 17° 19° (NNE) 11:58:13 145.980
CUBEBUG 2 25 May 11:52:50 11:54:14 11° 308° (NW) 11:55:39 437.445
AAUSAT CUBESAT 2 25 May 11:56:21 11:57:56 12° 306° (NW) 11:59:30 437.432
AO-7 25 May 11:58:45 12:01:33 12° 14° (NNE) 12:04:21 .
BEESAT 2 25 May 12:01:56 12:04:04 14° 359° (N) 12:06:13 435.950
UWE-3 25 May 12:06:34 12:08:30 13° 307° (NW) 12:10:27 435.000/436.395/437.385
BUGSAT 1 25 May 12:08:48 12:11:42 19° 60° (ENE) 12:14:36 437.445
PRISM 25 May 12:14:13 12:14:25 10° 274° (W) 12:14:38 437.425
LO-87 25 May 12:15:18 12:18:23 27° 95° (E) 12:21:28 145.935 - 145.965
EO-79 25 May 12:19:12 12:23:23 75° 72° (ENE) 12:27:36 145.935-145.965
Gurwin Techsat 1B 25 May 12:24:34 12:26:51 13° 47° (NE) 12:29:09 435.225
BEESAT 3 25 May 12:26:56 12:29:31 16° 15° (NNE) 12:32:06 437.485
DELFI C3 25 May 12:29:59 12:33:25 29° 295° (WNW) 12:36:49 145.870
NO-84 25 May 12:31:50 12:36:07 76° 342° (NNW) 12:40:07 435.350 FM
O/OREOS (USA 219) 25 May 12:43:10 12:45:51 15° 35° (NE) 12:48:31 437.305
ESTCUBE 1 25 May 12:43:12 12:47:21 34° 96° (E) 12:51:28 437.505/2401.250
YUBILEINY 25 May 12:44:33 12:53:14 55° 71° (ENE) 13:01:52 435.215
Oscar 11 25 May 12:47:21 12:48:26 11° 308° (NW) 12:49:30 .
Oscar 19 25 May 12:58:17 13:02:44 30° 60° (ENE) 13:07:12 437.125/150
AIST 2D 25 May 12:58:36 13:01:23 21° 267° (W) 13:04:11 435.315
EO-88 25 May 13:00:12 13:02:48 18° 299° (WNW) 13:05:24 145.990 - 145.960
NANOSAT C BR1 25 May 13:05:58 13:09:56 42° 262° (W) 13:13:58 145.865
POLYITAN 1 25 May 13:08:56 13:12:50 37° 263° (W) 13:16:46 437.675
DUCHIFAT 1 25 May 13:17:49 13:21:40 36° 263° (W) 13:25:34 145.980
QB50P2 25 May 13:17:50 13:21:30 29° 265° (W) 13:25:12 145.880/145.840
AO-85 25 May 13:32:48 13:36:42 52° 41° (NE) 13:40:43 145.980
BEESAT 2 25 May 13:40:10 13:43:16 20° 23° (NNE) 13:46:20 435.950
50 SAT 25 May 13:42:34 13:44:58 18° 92° (E) 13:47:21 437.505
BUGSAT 1 25 May 13:42:48 13:46:44 55° 259° (W) 13:50:42 437.445
AO-7 25 May 13:45:06 13:51:30 26° 41° (NE) 13:57:56 .
VELOX 1 25 May 13:46:40 13:50:49 39° 98° (E) 13:54:56 145.980
LO-87 25 May 13:48:44 13:51:49 28° 294° (WNW) 13:54:54 145.935 - 145.965
RS-15 25 May 13:51:09 14:01:50 38° 253° (WSW) 14:12:07 29.354- 29.394
SPROUT 25 May 13:54:00 13:58:09 48° 99° (E) 14:02:17 437.525
EO-79 25 May 13:57:23 13:59:41 14° 272° (W) 14:02:00 145.935-145.965
ITAMSAT 1 25 May 13:58:44 14:01:07 13° 48° (NE) 14:03:30 435.822/435.867
Gurwin Techsat 1B 25 May 14:00:35 14:05:45 56° 68° (ENE) 14:10:58 435.225
BEESAT 3 25 May 14:04:15 14:08:06 40° 38° (NE) 14:11:54 437.485
NO-84 25 May 14:09:56 14:14:01 55° 2° (N) 14:17:47 435.350 FM
ESTCUBE 1 25 May 14:20:03 14:24:10 35° 295° (WNW) 14:28:15 437.505/2401.250
O/OREOS (USA 219) 25 May 14:21:40 14:26:13 64° 58° (ENE) 14:30:41 437.305
UKube-1 25 May 14:23:55 14:27:33 26° 94° (E) 14:31:10 .
DX 1 25 May 14:27:51 14:31:55 38° 98° (E) 14:35:58 434.975-435.025
Oscar 19 25 May 14:36:45 14:41:50 53° 260° (W) 14:46:57 437.125/150
YUBILEINY 25 May 14:41:44 14:49:54 44° 274° (W) 14:58:05 435.215
AO-85 25 May 15:13:32 15:16:53 26° 241° (WSW) 15:20:20 145.980
50 SAT 25 May 15:14:48 15:18:02 39° 291° (WNW) 15:21:13 437.505
BEESAT 2 25 May 15:17:38 15:21:43 68° 44° (NE) 15:25:46 435.950
VELOX 1 25 May 15:23:21 15:27:10 29° 297° (WNW) 15:30:57 145.980
SPROUT 25 May 15:30:24 15:33:50 24° 298° (WNW) 15:37:16 437.525
ITAMSAT 1 25 May 15:34:32 15:39:36 60° 68° (ENE) 15:44:43 435.822/435.867
AO-7 25 May 15:34:51 15:43:06 74° 64° (ENE) 15:51:25 .
Gurwin Techsat 1B 25 May 15:41:34 15:46:02 27° 267° (W) 15:50:33 435.225
BEESAT 3 25 May 15:41:57 15:45:40 35° 238° (WSW) 15:49:20 437.485
NO-84 25 May 15:47:50 15:51:49 83° 204° (SSW) 15:55:26 435.350 FM
ITUPSAT 1 25 May 15:56:51 16:00:47 24° 92° (E) 16:04:42 437.325
UKube-1 25 May 15:59:40 16:03:45 42° 293° (WNW) 16:07:48 .
O/OREOS (USA 219) 25 May 16:01:55 16:05:10 20° 258° (WSW) 16:08:25 437.305
DX 1 25 May 16:04:15 16:08:01 30° 297° (WNW) 16:11:46 434.975-435.025
MOZHAYETS 4 25 May 16:27:45 16:31:47 28° 93° (E) 16:35:48
BEESAT 25 May 16:31:06 16:35:45 47° 99° (E) 16:40:22 436.000
DOVE 4 25 May 16:47:51 16:50:04 14° 56° (NE) 16:52:14 437.250
BEESAT 2 25 May 16:56:06 16:59:05 20° 244° (WSW) 17:02:02 435.950
HO-68 25 May 17:03:08 17:06:06 13° 33° (NNE) 17:09:05 435.675
CUBESAT XI-V 25 May 17:10:11 17:13:07 16° 87° (E) 17:16:02 437.345
ITAMSAT 1 25 May 17:15:16 17:19:27 25° 268° (W) 17:23:41 435.822/435.867
CUTE-I 25 May 17:20:04 17:23:51 20° 54° (NE) 17:27:37 437.470
XW-2D 25 May 17:20:30 17:22:20 13° 57° (ENE) 17:24:10 145.860 - 145.880
NO-84 25 May 17:26:03 17:28:54 21° 225° (SW) 17:31:35 435.350 FM
XW-2B 25 May 17:27:58 17:30:10 15° 58° (ENE) 17:32:22 145.730 - 145.750
AO-7 25 May 17:29:21 17:36:36 33° 266° (W) 17:43:56 .
KKS-1 25 May 17:32:44 17:36:03 20° 91° (E) 17:39:20 437.445
ITUPSAT 1 25 May 17:34:12 17:38:55 54° 292° (WNW) 17:43:37 437.325
XW-2C 25 May 17:40:51 17:43:37 19° 61° (ENE) 17:46:25 145.795 - 145.815
XW-2F 25 May 17:41:05 17:43:48 19° 61° (ENE) 17:46:30 145.980 - 146.000
NUDT-PHONESAT 25 May 17:45:12 17:47:38 17° 60° (ENE) 17:50:06 437.300
KAITUO 1B 25 May 17:51:11 17:53:57 20° 62° (ENE) 17:56:44 145.475/437.950
MOZHAYETS 4 25 May 18:04:41 18:09:07 44° 293° (WNW) 18:13:30
STARS 25 May 18:07:59 18:11:16 20° 92° (E) 18:14:34 437.465
BEESAT 25 May 18:09:14 18:13:21 29° 299° (WNW) 18:17:27 436.000
LilacSat-2 25 May 18:16:10 18:19:48 42° 69° (ENE) 18:23:29 437.200
DOVE 4 25 May 18:22:35 18:27:10 82° 75° (ENE) 18:31:32 437.250
SEEDS 25 May 18:38:00 18:39:23 11° 53° (NE) 18:40:46 437.485
XW-2A 25 May 18:40:43 18:41:24 10° 57° (ENE) 18:42:04 145.665 - 145.685
HO-68 25 May 18:45:27 18:51:57 39° 56° (ENE) 18:58:30 435.675
CUBESAT XI-V 25 May 18:46:23 18:51:05 77° 287° (WNW) 18:55:42 437.345
XW-2D 25 May 18:52:08 18:55:57 84° 256° (WSW) 18:59:49 145.860 - 145.880
CUTE-I 25 May 18:57:57 19:03:16 87° 254° (WSW) 19:08:37 437.470
XW-2B 25 May 19:00:03 19:03:52 72° 257° (WSW) 19:07:44 145.730 - 145.750
KKS-1 25 May 19:08:36 19:12:58 57° 290° (WNW) 19:17:18 437.445
XW-2C 25 May 19:13:47 19:17:30 50° 260° (W) 19:21:17 145.795 - 145.815
XW-2F 25 May 19:13:52 19:17:36 52° 260° (W) 19:21:22 145.980 - 146.000
ITUPSAT 1 25 May 19:14:19 19:15:45 11° 312° (NW) 19:17:12 437.325
NUDT-PHONESAT 25 May 19:17:29 19:21:10 57° 260° (W) 19:24:53 437.300
CUTE 1.7 + AOD 2 25 May 19:18:29 19:22:20 33° 66° (ENE) 19:26:13 437.475
KAITUO 1B 25 May 19:24:00 19:27:40 48° 260° (W) 19:31:23 145.475/437.950
STRAND 1 25 May 19:35:35 19:37:00 11° 83° (E) 19:38:25 437.568
ZACube-1 25 May 19:37:30 19:39:26 13° 54° (NE) 19:41:24 437.345
AAUSAT CUBESAT 2 25 May 19:40:01 19:43:07 20° 61° (ENE) 19:46:14 437.432
CUBEBUG 2 25 May 19:41:37 19:45:14 29° 64° (ENE) 19:48:57 437.445
STARS 25 May 19:43:39 19:47:58 56° 290° (WNW) 19:52:15 437.465
PCSat 25 May 19:47:21 19:51:09 20° 107° (ESE) 19:54:58 145.827
LilacSat-2 25 May 19:51:17 19:54:16 21° 268° (W) 19:57:18 437.200
UWE-3 25 May 19:55:06 19:58:37 26° 62° (ENE) 20:02:13 435.000/436.395/437.385
DOVE 4 25 May 20:03:01 20:05:25 14° 272° (W) 20:07:46 437.250
SEEDS 25 May 20:10:03 20:14:18 68° 72° (ENE) 20:18:32 437.485
XW-2A 25 May 20:10:13 20:13:35 86° 256° (WSW) 20:17:00 145.665 - 145.685
CUBESAT XI-V 25 May 20:25:14 20:27:42 14° 307° (NW) 20:30:08 437.345
HO-68 25 May 20:32:22 20:39:27 60° 257° (WSW) 20:46:36 435.675
Oscar 11 25 May 20:33:19 20:37:03 28° 63° (ENE) 20:40:48 .
CUTE-I 25 May 20:41:01 20:44:07 16° 274° (W) 20:47:16 437.470
KKS-1 25 May 20:47:42 20:48:37 11° 310° (NW) 20:49:33 437.445
CUTE 1.7 + AOD 2 25 May 20:54:18 20:58:10 33° 265° (W) 21:02:05 437.475
AO-73 25 May 20:57:41 21:01:49 54° 70° (ENE) 21:06:05 145.935
ZACube-1 25 May 21:10:45 21:14:58 78° 75° (ENE) 21:19:21 437.345
STRAND 1 25 May 21:12:03 21:17:12 66° 103° (ESE) 21:22:19 437.568
AAUSAT CUBESAT 2 25 May 21:14:07 21:18:15 56° 260° (W) 21:22:24 437.432
CUBEBUG 2 25 May 21:17:56 21:21:47 36° 264° (W) 21:25:45 437.445
STARS 25 May 21:22:54 21:23:24 10° 310° (NW) 21:23:54 437.465
PCSat 25 May 21:28:26 21:33:53 88° 302° (WNW) 21:39:22 145.827
UWE-3 25 May 21:30:55 21:34:55 42° 263° (W) 21:39:02 435.000/436.395/437.385
DELFI C3 25 May 21:45:28 21:49:14 41° 69° (ENE) 21:53:00 145.870
SEEDS 25 May 21:47:45 21:50:26 16° 272° (W) 21:53:08 437.485
EO-88 25 May 22:08:37 22:12:10 49° 71° (ENE) 22:15:45 145.990 - 145.960
Oscar 11 25 May 22:08:58 22:13:04 40° 263° (W) 22:17:13 .
ESTCUBE 1 25 May 22:14:47 22:16:16 11° 51° (NE) 22:17:45 437.505/2401.250
Tancredo 1 25 May 22:19:07 22:21:35 22° 148° (SSE) 22:24:04 437.200
M-CUBED/EXP-1 PRIME 25 May 22:22:44 22:26:00 46° 107° (ESE) 22:29:08 437.505
HO-68 25 May 22:25:34 22:28:46 13° 279° (W) 22:31:59 435.675
FO-29 25 May 22:31:29 22:36:15 22° 89° (E) 22:41:24 435.910
AO-73 25 May 22:35:15 22:38:25 20° 270° (W) 22:41:39 145.935
ISS 25 May 22:37:41 22:40:23 23° 148° (SSE) 22:43:06 437.550
TIGRISAT 25 May 22:43:25 22:46:32 18° 89° (E) 22:49:41 435.000
ZACube-1 25 May 22:49:33 22:51:52 14° 274° (W) 22:54:13 437.345
STRAND 1 25 May 22:51:54 22:55:59 24° 302° (WNW) 23:00:03 437.568
LO-87 25 May 22:56:41 22:59:43 27° 66° (ENE) 23:02:46 145.935 - 145.965
PCSat 25 May 23:13:22 23:18:00 28° 331° (NNW) 23:22:40 145.827
UNISAT 6 25 May 23:14:03 23:18:15 34° 96° (E) 23:22:29 437.425
VELOX 1 25 May 23:15:46 23:17:37 12° 52° (NE) 23:19:29 145.980
SPROUT 25 May 23:19:43 23:21:25 12° 53° (NE) 23:23:08 437.525
DELFI C3 25 May 23:20:56 23:24:10 23° 267° (W) 23:27:25 145.870
EO-88 25 May 23:43:43 23:46:08 17° 269° (W) 23:48:35 145.990 - 145.960
PRISM 25 May 23:45:06 23:49:12 77° 104° (ESE) 23:53:16 437.425
ESTCUBE 1 25 May 23:47:43 23:52:12 61° 70° (ENE) 23:56:42 437.505/2401.250
Tancredo 1 25 May 23:53:57 23:57:01 67° 167° (SSE) 00:00:05 437.200
SO-50 25 May 23:54:21 23:58:36 39° 123° (ESE) 00:02:50 436.795
DX 1 25 May 23:55:36 23:57:16 12° 52° (NE) 23:58:56 434.975-435.025
M-CUBED/EXP-1 PRIME 25 May 23:57:53 00:00:12 17° 306° (NW) 00:02:27 437.505
YUBILEINY 26 May 00:03:42 00:06:22 12° 64° (ENE) 00:09:02 435.215
ISS 26 May 00:13:16 00:16:32 68° 167° (SSE) 00:19:49 437.550
FO-29 26 May 00:15:46 00:21:56 86° 287° (WNW) 00:28:56 435.910
AIST 2D 26 May 00:17:38 00:20:23 20° 92° (E) 00:23:07 435.315
TIGRISAT 26 May 00:19:08 00:23:41 70° 288° (WNW) 00:28:18 435.000
50 SAT 26 May 00:20:18 00:22:44 18° 62° (ENE) 00:25:11 437.505
LO-87 26 May 00:30:01 00:33:08 28° 264° (W) 00:36:15 145.935 - 145.965
NANOSAT C BR1 26 May 00:44:44 00:47:58 21° 92° (E) 00:51:12 145.865
POLYITAN 1 26 May 00:47:55 00:51:26 24° 93° (E) 00:54:57 437.675
VELOX 1 26 May 00:48:54 00:53:19 71° 72° (ENE) 00:57:43 145.980
UNISAT 6 26 May 00:50:48 00:54:58 36° 295° (WNW) 00:59:12 437.425
SPROUT 26 May 00:52:22 00:56:36 74° 73° (ENE) 01:00:51 437.525
DUCHIFAT 1 26 May 00:55:58 00:59:25 24° 93° (E) 01:02:53 145.980
QB50P2 26 May 00:56:20 01:00:09 31° 95° (E) 01:03:57 145.880/145.840
PCSat 26 May 00:59:44 01:03:13 17° 356° (N) 01:06:42 145.827
BUGSAT 1 26 May 01:19:42 01:22:02 15° 89° (E) 01:24:22 437.445
PRISM 26 May 01:21:32 01:23:59 16° 303° (WNW) 01:26:25 437.425
UKube-1 26 May 01:23:18 01:27:25 45° 67° (ENE) 01:31:32 .
ESTCUBE 1 26 May 01:26:04 01:29:23 20° 270° (W) 01:32:45 437.505/2401.250
DX 1 26 May 01:28:21 01:32:41 69° 72° (ENE) 01:37:02 434.975-435.025
Tancredo 1 26 May 01:29:40 01:32:44 79° 189° (S) 01:35:49 437.200
EO-79 26 May 01:33:42 01:37:57 64° 103° (ESE) 01:42:10 145.935-145.965
SO-50 26 May 01:34:41 01:39:03 44° 323° (NW) 01:43:26 436.795
ITUPSAT 1 26 May 01:35:21 01:36:28 11° 47° (NE) 01:37:37 437.325
ISS 26 May 01:49:42 01:53:00 81° 186° (S) 01:56:18 437.550
AIST 2D 26 May 01:50:24 01:53:45 37° 291° (WNW) 01:57:04 435.315
50 SAT 26 May 01:52:03 01:55:22 43° 261° (W) 01:58:41 437.505
YUBILEINY 26 May 01:52:36 02:00:52 50° 88° (E) 02:09:12 435.215
TIGRISAT 26 May 01:57:35 01:59:36 13° 307° (NW) 02:01:38 435.000
FO-29 26 May 02:01:53 02:06:24 22° 306° (NW) 02:11:18 435.910
BEESAT 26 May 02:07:06 02:10:21 19° 55° (NE) 02:13:37 436.000
RS-15 26 May 02:10:04 02:19:38 29° 101° (ESE) 02:29:20 29.354- 29.394
Gurwin Techsat 1B 26 May 02:12:23 02:15:09 14° 85° (E) 02:17:53 435.225
NANOSAT C BR1 26 May 02:19:51 02:23:58 51° 290° (WNW) 02:28:06 145.865
POLYITAN 1 26 May 02:23:20 02:27:25 44° 292° (WNW) 02:31:30 437.675
VELOX 1 26 May 02:27:25 02:30:15 17° 271° (W) 02:33:06 145.980
SPROUT 26 May 02:30:36 02:33:02 15° 272° (W) 02:35:28 437.525
DUCHIFAT 1 26 May 02:31:15 02:35:17 44° 292° (WNW) 02:39:19 145.980
QB50P2 26 May 02:32:06 02:35:59 35° 294° (WNW) 02:39:52 145.880/145.840
Oscar 19 26 May 02:42:29 02:47:15 36° 96° (E) 02:51:58 437.125/150
PCSat 26 May 02:44:22 02:48:37 22° 22° (NNE) 02:52:50 145.827
BUGSAT 1 26 May 02:53:46 02:57:53 72° 287° (WNW) 03:02:01 437.445
UKube-1 26 May 03:00:06 03:03:39 24° 266° (W) 03:07:12 .
Tancredo 1 26 May 03:05:30 03:08:18 33° 206° (SSW) 03:11:06 437.200
DX 1 26 May 03:06:32 03:09:20 17° 270° (W) 03:12:09 434.975-435.025
ITUPSAT 1 26 May 03:08:39 03:13:17 52° 67° (ENE) 03:17:57 437.325
EO-79 26 May 03:10:17 03:13:18 19° 301° (WNW) 03:16:19 145.935-145.965
SO-50 26 May 03:17:17 03:20:35 19° 346° (NNW) 03:23:52 436.795
ISS 26 May 03:26:15 03:29:19 35° 206° (SSW) 03:32:20 437.550
AO-7 26 May 03:31:40 03:36:21 16° 82° (E) 03:41:02 .
MOZHAYETS 4 26 May 03:34:40 03:39:07 50° 69° (ENE) 03:43:37
BEESAT 26 May 03:42:48 03:47:34 82° 255° (WSW) 03:52:23 436.000
ITAMSAT 1 26 May 03:43:09 03:45:38 13° 85° (E) 03:48:07 435.822/435.867
YUBILEINY 26 May 03:49:23 03:57:47 49° 292° (WNW) 04:06:17 435.215
Gurwin Techsat 1B 26 May 03:50:37 03:55:59 79° 105° (ESE) 04:01:19 435.225
RS-15 26 May 04:18:09 04:30:21 81° 127° (SE) 04:42:45 29.354- 29.394
CUBESAT XI-V 26 May 04:18:16 04:22:23 31° 63° (ENE) 04:26:31 437.345
Oscar 19 26 May 04:21:48 04:26:39 41° 296° (WNW) 04:31:27 437.125/150
PCSat 26 May 04:27:43 04:33:07 60° 46° (NE) 04:38:29 145.827
BUGSAT 1 26 May 04:31:07 04:32:32 12° 306° (NW) 04:33:56 437.445
KKS-1 26 May 04:35:43 04:39:47 37° 65° (ENE) 04:43:52 437.445
O/OREOS (USA 219) 26 May 04:40:16 04:43:57 24° 104° (ESE) 04:47:38 437.305
ITUPSAT 1 26 May 04:47:27 04:51:24 25° 267° (W) 04:55:21 437.325
SO-50 26 May 04:59:24 05:02:36 18° 11° (N) 05:05:47 436.795
STARS 26 May 05:09:31 05:13:30 36° 65° (ENE) 05:17:31 437.465
MOZHAYETS 4 26 May 05:12:47 05:16:33 24° 268° (W) 05:20:21
ITAMSAT 1 26 May 05:20:45 05:25:59 77° 104° (ESE) 05:31:13 435.822/435.867
AO-7 26 May 05:22:35 05:30:54 64° 105° (ESE) 05:39:11 .
BEESAT 26 May 05:24:00 05:26:08 13° 274° (W) 05:28:17 436.000
Gurwin Techsat 1B 26 May 05:31:25 05:35:23 22° 305° (NW) 05:39:22 435.225
AO-85 26 May 05:33:19 05:36:26 21° 117° (ESE) 05:39:28 145.980
YUBILEINY 26 May 05:52:37 05:57:22 15° 320° (NW) 06:02:09 435.215
CUBESAT XI-V 26 May 05:55:09 05:59:39 43° 262° (W) 06:04:09 437.345
PCSat 26 May 06:11:30 06:16:16 31° 247° (WSW) 06:20:59 145.827
KKS-1 26 May 06:12:28 06:16:24 31° 264° (W) 06:20:22 437.445
DOVE 4 26 May 06:16:53 06:18:50 13° 87° (E) 06:20:48 437.250
O/OREOS (USA 219) 26 May 06:18:32 06:23:03 54° 304° (NW) 06:27:35 437.305
RS-15 26 May 06:31:57 06:44:00 54° 336° (NNW) 06:56:03 29.354- 29.394
SO-50 26 May 06:39:55 06:44:12 39° 35° (NE) 06:48:27 436.795
XW-2F 26 May 06:41:59 06:43:30 12° 87° (E) 06:45:00 145.980 - 146.000
XW-2C 26 May 06:42:07 06:43:51 13° 87° (E) 06:45:35 145.795 - 145.815
NUDT-PHONESAT 26 May 06:45:02 06:45:17 10° 85° (E) 06:45:32 437.300
STARS 26 May 06:46:02 06:49:54 31° 264° (W) 06:53:48 437.465
KAITUO 1B 26 May 06:51:02 06:52:39 12° 87° (E) 06:54:16 145.475/437.950
BEESAT 2 26 May 06:52:25 06:55:08 18° 114° (ESE) 06:57:51 435.950
STRAND 1 26 May 06:55:29 06:59:51 30° 60° (ENE) 07:04:15 437.568
ITAMSAT 1 26 May 07:01:02 07:04:57 22° 305° (NW) 07:08:51 435.822/435.867
CUTE-I 26 May 07:09:36 07:13:57 25° 92° (E) 07:18:17 437.470
AO-85 26 May 07:12:28 07:16:30 61° 317° (NW) 07:20:25 145.980
BEESAT 3 26 May 07:13:08 07:17:03 59° 127° (SE) 07:21:02 437.485
AO-7 26 May 07:15:44 07:23:24 43° 307° (NW) 07:31:05 .
LilacSat-2 26 May 07:17:56 07:21:24 29° 95° (E) 07:24:49 437.200
M-CUBED/EXP-1 PRIME 26 May 07:39:44 07:43:00 24° 57° (ENE) 07:46:06 437.505
DOVE 4 26 May 07:52:58 07:57:09 79° 285° (WNW) 08:01:21 437.250
XW-2D 26 May 07:53:07 07:56:59 66° 101° (E) 08:00:49 145.860 - 145.880
HO-68 26 May 07:54:22 07:59:44 22° 87° (E) 08:05:05 435.675
XW-2B 26 May 08:01:02 08:04:56 78° 103° (ESE) 08:08:46 145.730 - 145.750
O/OREOS (USA 219) 26 May 08:01:08 08:03:32 14° 326° (NNW) 08:05:56 437.305
